#timestamp,LO_Frequency,Hit,StdDev 
1652299215.7,286046998.2,N
1652299235.5,286046999.6,N
1652299255.4,286046999.6,N
1652299275.2,286046999.3,N
1652299295.0,286046999.5,N
1652299295.9,286046999.5,N
1652299315.8,286046998.2,N
1652299335.6,286046998.5,N
1652299355.4,286046998.1,N
1652299375.3,286046999.2,N
1652299395.1,286046998.7,N
1652299415.9,286046998.5,N
1652299435.7,286046999.1,N
1652299455.5,286046999.3,N
1652299475.4,286047002.4,Y
1652299495.2,286047002.3,P
1652299515.1,286047002.4,N
1652299516.0,286047002.4,N
1652299535.8,286047001.0,N
1652299555.6,286047000.7,N
1652299575.5,286047000.9,N
1652299595.3,286046999.9,N
1652299615.1,286047000.8,N
1652299635.9,286047001.2,N
1652299655.7,286046998.5,N
1652299675.6,286047000.7,N
1652299695.4,286047000.5,N
1652299715.2,286047001.0,N
1652299735.1,286046999.7,N
1652299736.0,286046999.7,N
1652299755.8,286047002.4,N
1652299775.6,286047002.4,N
1652299795.5,286047000.2,N
1652299815.3,286047000.5,N
1652299835.2,286047000.3,N
1652299855.0,286047004.0,Y
1652299855.9,286047004.0,P
1652299875.7,286047000.3,N
1652299895.6,286047000.1,N
1652299915.4,286047001.0,N
1652299935.3,286047000.0,N
1652299955.1,286047002.5,N
1652299975.8,286046999.8,N
1652299995.7,286047002.7,N
1652300015.5,286047000.7,N
1652300035.4,286047002.1,N
1652300055.2,286047001.9,N
1652300075.0,286047002.0,N
1652300075.9,286047002.0,N
1652300095.8,286047001.3,N
1652300115.6,286047002.7,N
1652300135.4,286047001.0,N
1652300155.3,286046999.8,N
1652300175.1,286047002.8,N
1652300195.9,286047000.0,N
1652300215.7,286047000.6,N
1652300235.5,286046998.2,N
1652300255.4,286047000.8,N
1652300275.2,286047000.6,N
1652300295.0,286046998.2,N
1652300295.9,286046998.2,N
1652300315.8,286047000.9,N
1652300335.6,286047001.1,N
1652300355.5,286047001.2,N
1652300375.3,286046998.2,N
1652300395.1,286047001.2,N
1652300415.9,286047001.1,N
1652300435.7,286046998.2,N
1652300455.5,286047001.2,N
1652300475.4,286047001.1,N
1652300495.2,286047000.3,N
1652300515.1,286047000.1,N
1652300516.0,286047000.1,N
1652300535.8,286047001.6,N
1652300555.6,286047002.2,N
1652300575.5,286047001.9,N
1652300595.3,286047001.7,N
1652300615.1,286047002.2,N
1652300635.9,286047002.6,N
1652300655.7,286047002.0,N
1652300675.6,286047002.3,N
1652300695.4,286047002.4,N
1652300715.2,286047000.2,N
1652300735.1,286046999.0,N
1652300736.0,286046999.0,N
1652300755.8,286046998.4,N
1652300805.7,286046996.8,E
1652300815.6,286047000.3,N
1652300835.5,286047003.7,P
1652300855.3,286047004.3,N
1652300875.1,286047004.0,N
1652300895.9,286047003.3,N
1652300915.7,286047003.3,N
1652300935.5,286047003.1,N
1652300955.4,286047004.8,Y
1652300975.2,286047002.3,P
1652300995.1,286047002.4,P
1652300996.0,286047002.4,P
1652301015.8,286047002.6,Y
1652301035.6,286047000.8,P
1652301055.5,286046998.6,N
1652301075.3,286046999.0,N
1652301095.1,286046996.6,N
1652301115.9,286046996.9,N
1652301135.7,286046999.3,N
1652301155.6,286046998.9,N
1652301175.4,286046998.9,N
1652301195.2,286046999.2,N
1652301215.1,286046998.7,N
1652301216.0,286046998.7,N
1652301235.8,286046998.1,N
1652301255.7,286046998.7,N
1652301275.5,286046999.5,N
1652301295.3,286046999.3,N
1652301315.2,286046999.2,N
1652301335.0,286046996.8,N
1652301335.9,286046996.8,N
1652301355.8,286046999.1,N
1652301375.6,286046998.7,N
1652301395.4,286046999.4,N
1652301415.3,286046998.8,N
1652301435.1,286046997.0,N
1652301455.8,286046997.0,N
1652301475.7,286046999.4,N
1652301495.5,286046996.5,N
1652301515.4,286046999.3,N
1652301535.2,286046996.9,N
1652301555.0,286046999.1,N
1652301555.9,286046999.1,N
1652301575.8,286046999.0,N
1652301595.6,286046999.5,N
1652301615.5,286046999.2,N
1652301635.3,286046999.6,N
1652301655.1,286046999.1,N
1652301675.9,286046996.9,Y
1652301695.7,286046998.2,P
1652301715.5,286046998.7,P
1652301735.4,286047001.2,P
1652301755.2,286047000.3,N
1652301775.1,286047000.4,N
1652301776.0,286047000.4,N
1652301795.8,286047002.6,N
1652301815.6,286047000.4,N
1652301835.5,286047001.0,N
1652301855.3,286047000.1,N
1652301875.1,286046999.9,N
1652301895.9,286046998.1,N
1652301915.7,286046998.3,N
1652301935.6,286047000.8,N
1652301955.4,286046998.1,N
1652301975.2,286047000.7,N
1652301995.1,286047001.1,N
1652301996.0,286047001.1,N
1652302015.8,286047000.4,N
1652302035.7,286047000.0,N
1652302055.5,286047000.3,N
1652302075.3,286046998.6,N
1652302095.2,286047000.0,N
1652302115.0,286047000.2,N
1652302115.9,286047000.2,N
1652302135.7,286047000.1,N
1652302155.6,286047000.3,N
1652302175.4,286047002.3,N
1652302195.3,286046999.8,N
1652302215.1,286047002.4,N
1652302235.8,286047000.0,N
1652302255.7,286047000.6,N
1652302275.5,286047000.1,N
1652302295.4,286047000.3,N
1652302315.2,286047000.7,N
1652302335.0,286047000.5,N
1652302335.9,286047000.5,N
1652302355.8,286047000.3,N
1652302375.6,286046998.2,N
1652302395.5,286046998.6,N
1652302415.3,286046998.6,N
1652302435.1,286046998.7,N
1652302455.9,286047000.4,N
1652302475.7,286047000.7,N
1652302495.5,286046999.4,N
1652302515.4,286046997.0,Y
1652302535.2,286046996.7,P
1652302555.1,286046999.6,N
1652302556.0,286046999.6,N
1652302575.8,286046998.4,N
1652302595.6,286046998.4,N
1652302615.5,286046998.7,N
1652302635.3,286047000.7,N
1652302655.2,286047000.3,N
1652302675.9,286046998.6,N
1652302695.7,286047000.7,N
1652302715.6,286047000.4,N
1652302735.4,286047000.0,N
1652302785.3,286046999.0,E
1652302795.2,286046998.4,N
